Holmes Reef Observation History
Time Wind Speed Temp Pressure Rel. Hum Rain
03/02:30pm ESE 6 kts 27.0°c 1008.3 hPa n/a n/a
03/02:00pm ESE 6-7 kts 27.1°c 1008.4 hPa n/a n/a
03/01:30pm ESE 7-8 kts 26.7°c 1008.8 hPa n/a n/a
03/01:00pm E 7-8 kts 26.4°c 1009.2 hPa n/a n/a
03/12:30pm E 9-11 kts 25.3°c 1009.7 hPa n/a n/a
03/12:00pm SE 15-17 kts 24.9°c 1010.2 hPa n/a n/a
03/11:30am SE 16-19 kts 25.0°c 1010.6 hPa n/a n/a
03/11:00am ESE 11-12 kts 26.5°c 1011.1 hPa n/a n/a
03/10:30am E 9-10 kts 26.5°c 1011.2 hPa n/a n/a
03/10:00am E 13-15 kts 25.9°c 1011.3 hPa n/a n/a
03/09:30am E 10-12 kts 27.0°c 1011.4 hPa n/a n/a
03/09:00am ESE 15-17 kts 26.5°c 1011.4 hPa n/a n/a
03/08:30am ESE 10-11 kts 27.0°c 1011.0 hPa n/a n/a
03/08:00am E 10-11 kts 26.5°c 1010.9 hPa n/a n/a
03/07:30am SE 13-16 kts 26.7°c 1010.5 hPa n/a n/a
03/07:00am SE 9-11 kts 27.2°c 1010.0 hPa n/a n/a
03/06:30am ESE 10-12 kts 27.3°c 1009.7 hPa n/a n/a
03/06:00am SE 9-11 kts 26.9°c 1009.2 hPa n/a n/a
03/05:30am SE 11-14 kts 26.6°c 1008.9 hPa n/a n/a
03/05:00am ESE 9-12 kts 27.1°c 1008.8 hPa n/a n/a
03/04:30am ESE 10-12 kts 27.0°c 1008.6 hPa n/a n/a
03/04:00am ESE 11-13 kts 27.1°c 1008.6 hPa n/a n/a
03/03:30am ESE 13-15 kts 27.3°c 1008.5 hPa n/a n/a
03/03:00am SE 11-13 kts 27.1°c 1008.6 hPa n/a n/a
03/02:30am ESE 13-14 kts 27.1°c 1008.7 hPa n/a n/a
03/02:00am SE 13-16 kts 27.3°c 1008.7 hPa n/a n/a
03/01:30am SE 13-15 kts 27.1°c 1009.2 hPa n/a n/a
03/01:00am SE 13-16 kts 27.3°c 1009.5 hPa n/a n/a
03/12:30am ESE 13-15 kts 27.3°c 1010.0 hPa n/a n/a
03/12:00am ESE 13-15 kts 27.2°c 1010.4 hPa n/a n/a
Time Wind Speed Temp Pressure Rel. Hum Rain
02/11:30pm ESE 15-17 kts 27.3°c 1010.5 hPa n/a n/a
02/11:00pm ESE 15-17 kts 27.6°c 1010.8 hPa n/a n/a
02/10:30pm ESE 15-18 kts 27.5°c 1011.1 hPa n/a n/a
02/10:00pm ESE 16-18 kts 27.6°c 1011.2 hPa n/a n/a
02/09:30pm ESE 16-19 kts 27.5°c 1011.1 hPa n/a n/a
02/09:00pm ESE 17-21 kts 27.5°c 1011.0 hPa n/a n/a
02/08:30pm ESE 16-20 kts 27.6°c 1010.7 hPa n/a n/a
02/08:00pm SE 16-19 kts 27.5°c 1010.4 hPa n/a n/a
02/07:30pm ESE 15-18 kts 27.6°c 1010.3 hPa n/a n/a
02/07:00pm SE 16-19 kts 27.6°c 1010.0 hPa n/a n/a
02/06:30pm SE 16-19 kts 27.6°c 1009.8 hPa n/a n/a
02/06:00pm SE 16-19 kts 27.7°c 1009.7 hPa n/a n/a
02/05:30pm SE 16-18 kts 27.6°c 1009.5 hPa n/a n/a
02/05:00pm SE 16-18 kts 27.7°c 1009.2 hPa n/a n/a
02/04:30pm SE 16-19 kts 27.7°c 1009.0 hPa n/a n/a
02/04:00pm SE 16-18 kts 27.7°c 1008.9 hPa n/a n/a
02/03:30pm SE 14-17 kts 27.6°c 1009.0 hPa n/a n/a
02/03:00pm SE 15-18 kts 27.7°c 1009.3 hPa n/a n/a
02/02:30pm SE 15-17 kts 27.7°c 1009.5 hPa n/a n/a
02/02:00pm SE 15-17 kts 27.8°c 1009.8 hPa n/a n/a
02/01:30pm SE 15-17 kts 27.7°c 1010.1 hPa n/a n/a
02/01:00pm SE 17-19 kts 27.7°c 1010.2 hPa n/a n/a
02/12:30pm ESE 16-19 kts 27.8°c 1010.6 hPa n/a n/a
02/12:00pm ESE 17-20 kts 27.7°c 1011.0 hPa n/a n/a
02/11:30am SE 16-19 kts 27.7°c 1011.4 hPa n/a n/a
02/11:00am ESE 17-19 kts 27.6°c 1011.7 hPa n/a n/a
02/10:30am ESE 17-20 kts 27.6°c 1011.8 hPa n/a n/a
02/10:00am ESE 17-19 kts 27.5°c 1011.9 hPa n/a n/a
02/09:30am SE 19-22 kts 27.4°c 1011.8 hPa n/a n/a
02/09:00am SE 17-19 kts 27.5°c 1011.8 hPa n/a n/a
02/08:30am SE 18-20 kts 27.5°c 1011.4 hPa n/a n/a
02/08:00am ESE 17-19 kts 27.4°c 1011.2 hPa n/a n/a
02/07:30am ESE 17-19 kts 27.4°c 1011.0 hPa n/a n/a
02/07:00am ESE 17-19 kts 27.5°c 1010.6 hPa n/a n/a
02/06:30am ESE 18-21 kts 27.4°c 1010.1 hPa n/a n/a
02/06:00am ESE 17-19 kts 27.3°c 1009.8 hPa n/a n/a
02/05:30am ESE 17-19 kts 27.4°c 1009.7 hPa n/a n/a
02/05:00am E 14-16 kts 26.9°c 1009.4 hPa n/a n/a
02/04:30am E 19-22 kts 26.7°c 1009.3 hPa n/a n/a
02/04:00am E 20-22 kts 26.9°c 1009.3 hPa n/a n/a
02/03:59am E 20-24 kts 26.9°c 1009.6 hPa n/a n/a
02/03:30am ESE 16-19 kts 27.4°c 1009.3 hPa n/a n/a
02/03:00am ESE 19-22 kts 27.3°c 1009.5 hPa n/a n/a
02/02:30am SE 17-19 kts 26.9°c 1009.7 hPa n/a n/a
02/02:00am SE 21-25 kts 26.6°c 1010.0 hPa n/a n/a
02/01:30am ESE 18-21 kts 27.2°c 1010.5 hPa n/a n/a
02/01:00am ESE 17-21 kts 27.0°c 1010.9 hPa n/a n/a
02/12:30am SSE 17-21 kts 26.3°c 1011.1 hPa n/a n/a
02/12:00am ESE 16-19 kts 27.1°c 1011.2 hPa n/a n/a
Time Wind Speed Temp Pressure Rel. Hum Rain
01/11:30pm ESE 19-22 kts 26.9°c 1011.4 hPa n/a n/a
01/11:00pm ESE 19-21 kts 27.0°c 1011.7 hPa n/a n/a
01/10:30pm ESE 19-21 kts 27.1°c 1011.9 hPa n/a n/a
01/10:00pm ESE 20-23 kts 27.3°c 1011.9 hPa n/a n/a
01/09:30pm ESE 19-21 kts 27.3°c 1012.0 hPa n/a n/a
01/09:00pm ESE 18-20 kts 27.3°c 1011.9 hPa n/a n/a
01/08:30pm ESE 19-22 kts 27.2°c 1011.8 hPa n/a n/a
01/08:00pm ESE 16-19 kts 27.6°c 1011.6 hPa n/a n/a
01/07:30pm ESE 15-17 kts 27.7°c 1011.5 hPa n/a n/a
01/07:00pm ESE 16-19 kts 27.6°c 1011.2 hPa n/a n/a
01/06:30pm SE 16-18 kts 27.6°c 1010.9 hPa n/a n/a
01/06:00pm ESE 15-17 kts 27.5°c 1010.6 hPa n/a n/a
01/05:30pm ESE 17-21 kts 27.3°c 1010.5 hPa n/a n/a
01/05:00pm ESE 17-20 kts 27.4°c 1010.2 hPa n/a n/a
01/04:30pm ESE 14-18 kts 26.3°c 1010.1 hPa n/a n/a
01/04:00pm SE 14-19 kts 26.9°c 1009.9 hPa n/a n/a
01/03:30pm ESE 17-20 kts 27.7°c 1009.7 hPa n/a n/a
01/03:00pm ESE 15-18 kts 27.7°c 1009.7 hPa n/a n/a
01/02:30pm ESE 11-16 kts 27.6°c 1009.8 hPa n/a n/a
01/02:00pm SE 12-14 kts 27.8°c 1010.0 hPa n/a n/a
01/01:30pm ESE 12-14 kts 27.9°c 1010.5 hPa n/a n/a
01/01:00pm ESE 13-14 kts 28.0°c 1010.6 hPa n/a n/a
01/12:30pm ESE 14-17 kts 27.9°c 1010.7 hPa n/a n/a
01/12:00pm ESE 15-18 kts 27.7°c 1011.2 hPa n/a n/a
01/11:30am ESE 14-16 kts 27.8°c 1011.7 hPa n/a n/a
01/11:00am ESE 14-16 kts 27.6°c 1012.0 hPa n/a n/a
01/10:30am ESE 16-20 kts 27.6°c 1012.3 hPa n/a n/a
01/10:00am ESE 17-19 kts 27.8°c 1012.2 hPa n/a n/a
01/09:30am ESE 16-18 kts 27.7°c 1012.0 hPa n/a n/a
01/09:00am ESE 16-19 kts 27.6°c 1011.7 hPa n/a n/a
01/08:30am E 18-21 kts 27.6°c 1011.5 hPa n/a n/a
01/08:00am ESE 17-21 kts 27.3°c 1011.4 hPa n/a n/a
01/07:30am ESE 18-21 kts 27.5°c 1011.1 hPa n/a n/a
01/07:00am ESE 18-21 kts 27.4°c 1010.8 hPa n/a n/a
01/06:30am ESE 17-20 kts 27.3°c 1010.4 hPa n/a n/a
01/06:00am ESE 16-19 kts 27.3°c 1010.2 hPa n/a n/a
01/05:30am ESE 16-18 kts 27.3°c 1010.0 hPa n/a n/a
01/05:00am ESE 15-19 kts 27.3°c 1009.9 hPa n/a n/a
01/04:30am ESE 16-19 kts 27.2°c 1009.7 hPa n/a n/a
01/04:00am E 15-17 kts 27.2°c 1009.8 hPa n/a n/a
01/03:30am E 15-18 kts 27.2°c 1009.8 hPa n/a n/a
01/03:00am ESE 16-18 kts 27.3°c 1009.9 hPa n/a n/a
01/02:30am ESE 17-20 kts 27.3°c 1010.2 hPa n/a n/a
01/02:00am ESE 17-20 kts 27.1°c 1010.4 hPa n/a n/a
01/01:30am ESE 17-19 kts 27.3°c 1010.7 hPa n/a n/a
01/01:00am ESE 18-20 kts 27.4°c 1010.9 hPa n/a n/a
01/12:30am ESE 17-19 kts 27.4°c 1011.2 hPa n/a n/a
01/12:00am ESE 18-21 kts 27.4°c 1011.7 hPa n/a n/a